Location: *
(48.8780°N, 19.2358°E)
Time: 01:40:03
(UTC+00:00)

STARLINK-46 - Pass Details

Date: 18 October 2019
Orbit: 357 x 393 km, 53.0° (Epoch: 20 November)

Event Time Altitude Azimuth Distance (km) Brightness Sun altitude
Rises 16:35:57 0° 294° (WNW) 2,237 7.9 -8.5°
Reaches altitude 10° 16:37:59 10° 296° (WNW) 1,391 6.7 -8.9°
Maximum altitude 16:41:05 81° 22° (NNE) 391 2.8 -9.4°
Enters shadow 16:43:52 13° 111° (ESE) 1,256 4.9 -9.8°
